SCP
0 0 0 0 0 0 0 0 0 0 0 0 0 0 0 0 0 0 0 0 0 0 0 0 0 0 0 0 0 0 0 0 0 0 0 0 0 0 0 0 0 0 0 0 0 0 0
0 0 0 0 0 0 0 0 0 0 0 0 0 0 0 0 0 0 0 0 0 0 0 0 0 0 0 0 0 0 0 0 0 0 0 0 0 0 0 0 0 0 0 0 0 0 0
0 0 0 0 0 0 0 0 0 0 0 0 0 0 0 0 0 0 0 0 0 0 0 0 0 0 0 0 0 0 0 0 0 0 0 0 0 0 0 0 0 0 0 0 0 0 0
0 0 0 0 0 0 0 0 0 0 0 0 0 0 0 0 0 0 0 0 0 0 0 0 0 0 0 0 0 0 0 0 0 0 0 0 0 0 0 0 0 0 0 0 0 0 0
0 0 0 0 0 0 0 0 0 0 0 0 0 0 0 0 0 0 0 0 0 0 0 0 0 0 0 0 0 0 0 0 0 0 0 0 0 0 0 0 0 0 0 0 0 0 0
0 0 0 0 0 0 0 0 0 0 0 0 0 0 0 0 0 0 0 0 0 0 0 0 0 0 0 0 0 0 0 0 0 0 0 0 0 0 0 0 0 0 0 0 0 0 0
0 0 0 0 0 0 0 0 0 0 0 0 0 0 0 0 0 0 0 0 0 0 0 0 0 0 0 0 0 0 0 0 0 0 0 0 0 0 0 0 0 0 0 0 0 0 0
0 0 0 0 0 0 0 0 0 0 0 0 0 0 0 0 0 0 0 0 0 0 0 0 0 0 0 0 0 0 0 0 0 0 0 0 0 0 0 0 0 0 0 0 0 0 0
0 0 0 0 0 0 0 0 0 0 0 0 0 0 0 0 0 0 0 0 0 0 0 0 0 0 0 0 0 0 0 0 0 0 0 0 0 0 0 0 0 0 0 0 0 0 0
0 0 0 0 0 0 0 0 0 0 0 0 0 0 0 0 0 0 0 0 0 0 0 0 0 0 0 0 0 0 0 0 0 0 0 0 0 0 0 0 0 0 0 0 0 0 0
0 0 0 0 0 0 0 0 0 0 0 0 0 0 0 0 0 0 0 0 0 0 0 0 0 0 0 0 0 0 0 0 0 0 0 0 0 0 0 0 0 0 0 0 0 0 0
0 0 0 0 0 0 0 0 0 0 0 0 0 0 0 0 0 0 0 0 0 0 0 0 0 0 0 0 0 0 0 0 0 0 0 0 0 0 0 0 0 0 0 0 0 0 0
0 0 0 0 0 0 0 0 0 0 0 0 0 0 0 0 0 0 0 0 0 0 0 0 0 0 0 0 0 0 0 0 0 0 0 0 0 0 0 0 0 0 0 0 0 0 0
0 0 0 0 0 0 0 0 0 0 0 0 0 0 0 0 0 0 0 0 0 0 0 0 0 0 0 0 0 0 0 0 0 0 0 0 0 0 0 0 0 0 0 0 0 0 0
0 0 0 0 0 0 0 0 0 0 0 0 0 0 0 0 0 0 0 0 0 0 0 0 0 0 0 0 0 0 0 0 0 0 0 0 0 0 0 0 0 0 0 0 0 0 0
0 0 0 0 0 0 0 0 0 0 0 0 0 0 0 0 0 0 0 0 0 0 0 0 0 0 0 0 0 0 0 0 0 0 0 0 0 0 0 0 0 0 0 0 0 0 0
0 0 0 0 0 0 0 0 0 0 0 0 0 0 0 0 0 0 0 0 0 0 0 0 0 0 0 0 0 0 0 0 0 0 0 0 0 0 0 0 0 0 0 0 0 0 0
0 0 0 0 0 0 0 0 0 0 0 0 0 0 0 0 0 0 0 0 0 0 0 0 0 0 0 0 0 0 0 0 0 0 0 0 0 0 0 0 0 0 0 0 0 0 0
0 0 0 0 0 0 0 0 0 0 0 0 0 0 0 0 0 0 0 0 0 0 0 0 0 0 0 0 0 0 0 0 0 0 0 0 0 0 0 0 0 0 0 0 0 0 0
0 0 0 0 0 0 0 0 0 0 0 0 0 0 0 0 0 0 0 0 0 0 0 0 0 0 0 0 0 0 0 0 0 0 0 0 0 0 0 0 0 0 0 0 0 0 0
0 0 0 0 0 0 0 0 0 0 0 0 0 0 0 0 0 0 0 0 0 0 0 0 0 0 0 0 0 0 0 0 0 0 0 0 0 0 0 0 0 0 0 0 0 0 0
0 0 0 0 0 0 0 0 0 0 0 0 0 0 0 0 0 0 0 0 0 0 0 0 0 0 0 0 0 0 0 0 0 0 0 0 0 0 0 0 0 0 0 0 0 0 0
0 0 0 0 0 0 0 0 0 0 0 0 0 0 0 0 0 0 0 0 0 0 0 0 0 0 0 0 0 0 0 0 0 0 0 0 0 0 0 0 0 0 0 0 0 0 0
0 0 0 0 0 0 0 0 0 0 0 0 0 0 0 0 0 0 0 0 0 0 0 0 0 0 0 0 0 0 0 0 0 0 0 0 0 0 0 0 0 0 0 0 0 0 0
0 0 0 0 0 0 0 0 0 0 0 0 0 0 0 0 0 0 0 0 0 0 0 0 0 0 0 0 0 0 0 0 0 0 0 0 0 0 0 0 0 0 0 0 0 0 0
0 0 0 0 0 0 0 0 0 0 0 0 0 0 0 0 0 0 0 0 0 0 0 0 0 0 0 0 0 0 0 0 0 0 0 0 0 0 0 0 0 0 0 0 0 0 0
-0 0 0 0 0 0 0 0 0 0 0 0 0 0 0 0 0 0 0 0 0 0 0 0 0 0 0 0 0 0 0 0 0 0 0 0 0 0 0 0 0 0 0 0 0 0 0
0 -0 0 0 0 0 0 0 0 0 0 0 0 0 0 0 0 0 0 0 0 0 0 0 0 0 0 0 0 0 0 0 0 0 0 0 0 0 0 0 0 0 0 0 0 0 0
0 0 0 0 0 0 0 0 0 0 0 0 0 0 0 0 0 0 0 0 0 0 0 0 0 0 0 0 0 0 0 0 0 0 0 0 0 0 0 0 0 0 0 0 0 0 0
Wind_Speed_500mb
35 33 31 31 31 29 28 27 27 27 27 27 26 26 27 27 26 26 27 28 29 29 29 26 25 18 14 14 22 19 26 25 19 13 9 9 7 6 6 8 5 9 7 10 12 14 16
36 37 38 37 36 35 35 33 33 33 33 32 32 32 31 31 32 32 31 30 32 31 32 31 27 21 17 16 18 22 28 29 27 21 16 12 8 6 5 7 9 5 10 17 14 14 16
35 35 37 41 43 42 40 39 38 37 37 37 36 36 36 36 35 35 35 33 37 36 35 35 31 22 26 30 22 25 29 30 28 23 18 14 10 7 7 4 4 3 13 15 21 10 10
34 36 38 40 41 45 46 46 44 43 42 42 40 39 40 41 39 41 39 37 38 39 40 38 30 22 18 23 24 29 29 29 26 22 18 13 11 7 5 8 2 6 6 8 10 14 6
33 35 38 42 43 45 46 47 50 51 49 47 45 44 44 43 43 44 43 41 42 41 38 36 26 17 17 20 26 32 29 25 23 19 16 12 10 7 8 7 9 10 20 17 9 20 7
28 32 35 37 43 44 44 46 48 49 53 54 52 49 47 45 45 46 46 44 44 41 34 25 26 10 28 16 18 20 27 28 20 17 10 11 6 7 7 13 24 21 15 16 21 10 17
30 31 31 32 34 39 42 40 43 47 49 50 54 55 52 48 47 45 47 38 17 11 12 16 6 14 18 17 18 19 24 25 21 13 13 3 13 31 35 34 26 14 15 33 30 8 10
34 35 33 33 34 34 34 36 38 44 47 49 50 52 53 50 46 41 41 22 21 18 21 30 40 49 55 49 20 32 28 22 18 21 14 7 30 34 1 12 18 16 25 39 26 4 13
39 38 38 37 35 35 35 33 33 37 44 44 49 53 53 46 45 37 33 28 23 18 12 17 38 36 46 43 28 35 33 21 15 18 28 31 17 3 16 16 21 23 35 28 20 12 14
48 45 43 41 41 37 35 35 36 35 39 40 39 42 49 47 32 29 22 14 8 4 11 11 11 14 19 17 10 24 38 14 8 18 18 19 7 15 13 21 24 25 18 22 15 10 23
57 55 52 49 46 43 41 39 39 39 39 40 39 35 34 36 19 17 13 9 10 3 17 3 6 7 13 13 8 8 29 16 16 16 14 12 15 17 19 18 23 11 4 9 6 16 12
55 61 59 58 57 50 48 45 44 45 44 43 37 35 30 31 18 21 15 13 15 7 21 6 8 9 7 8 4 9 9 5 4 8 10 13 1 9 8 7 2 17 6 3 2 6 18
61 64 62 65 64 65 61 56 50 51 50 47 42 37 34 31 13 16 25 24 9 18 5 13 14 11 7 13 11 15 14 17 17 11 20 9 15 7 8 9 5 9 9 12 12 11 25
54 60 66 68 58 68 73 72 72 60 60 54 50 47 47 36 23 23 39 8 30 17 29 6 8 10 19 24 15 19 13 17 24 10 5 13 28 27 23 30 14 23 17 12 21 25 42
43 42 62 62 65 68 61 67 83 75 68 66 59 65 66 52 33 34 27 20 30 23 17 18 6 12 17 10 9 14 26 18 20 41 28 17 32 6 1 3 9 16 17 5 7 4 15
63 60 50 43 46 57 68 60 59 73 77 72 79 79 82 63 43 47 12 46 25 21 17 14 37 32 33 31 19 22 23 13 16 30 42 6 20 6 6 3 2 9 9 8 7 12 31
62 64 68 69 59 51 44 48 55 56 51 59 74 30 39 54 55 36 19 29 22 34 24 26 41 33 31 32 29 23 30 10 18 14 22 7 12 6 10 24 31 12 13 9 6 10 19
65 66 64 69 67 65 69 60 47 52 49 46 55 10 39 65 25 15 25 20 14 14 24 18 8 25 45 31 27 27 33 30 41 27 24 16 6 21 42 6 4 17 30 36 19 22 18
39 47 42 42 42 48 64 64 65 60 44 48 24 18 60 95 20 22 26 25 20 24 24 18 28 23 20 27 22 32 36 20 33 27 24 19 10 13 26 11 4 16 19 20 34 29 58
39 40 42 52 46 38 35 44 50 58 53 43 18 7 14 45 33 39 39 40 31 34 27 18 8 5 2 19 25 27 28 9 21 20 8 29 13 26 41 44 3 11 28 38 46 35 44
34 35 35 40 48 49 43 29 39 43 57 40 26 12 26 12 25 31 31 15 43 28 32 26 11 43 43 39 45 38 53 39 9 9 4 12 27 28 41 48 46 48 37 39 51 56 53
38 41 40 43 36 42 47 47 33 29 41 48 25 11 21 11 58 49 43 35 55 50 41 28 37 44 42 51 47 46 46 42 34 8 12 8 36 37 53 58 64 68 41 67 63 68 51
41 41 45 43 44 42 35 42 47 44 30 23 28 54 28 29 23 26 43 55 54 52 54 71 58 38 42 49 85 97 85 58 18 31 34 19 15 22 45 49 46 28 66 69 81 76 64
47 47 48 44 45 41 38 37 33 35 40 41 39 44 14 10 24 34 48 59 68 71 67 63 74 50 91 94 51 41 39 53 42 40 47 30 40 27 21 17 34 43 49 72 72 68 66
50 53 51 50 49 49 38 35 37 43 41 35 42 36 13 10 12 28 27 41 56 81 65 66 94 93 65 51 18 23 10 14 32 50 53 49 41 20 17 31 34 6 33 45 42 65 56
53 55 53 53 52 50 45 42 48 52 36 39 53 51 43 10 15 23 11 13 14 29 35 58 90 89 63 12 10 23 25 14 15 11 51 50 50 36 25 27 39 40 58 52 11 16 59
53 56 56 56 59 55 51 48 48 41 38 40 44 42 46 21 45 35 27 24 20 14 12 6 17 36 71 25 30 29 31 10 24 34 33 18 27 48 46 42 28 23 17 11 23 38 63
55 56 58 57 56 58 56 52 51 47 46 41 50 41 46 34 53 40 41 31 32 16 7 17 20 3 6 20 21 27 20 27 29 51 55 47 23 22 25 35 50 34 54 48 57 76 72
59 56 57 58 60 59 58 55 54 51 48 45 56 50 43 46 38 46 55 53 51 55 37 12 14 20 12 7 7 8 10 10 29 25 37 40 52 51 41 29 23 43 59 100 110 81 75
Wind_Direction_500mb
257 256 255 257 262 265 268 272 277 282 286 290 294 299 305 310 313 317 321 323 323 325 326 328 322 308 282 245 245 231 216 220 228 240 253 263 243 178 217 189 199 228 215 230 250 256 242
257 258 260 259 259 262 267 271 274 278 281 284 289 293 297 302 308 311 312 314 312 314 317 319 316 298 269 242 246 229 223 227 235 238 246 252 236 250 177 203 223 191 254 261 267 251 240
261 261 260 261 262 262 262 265 270 273 277 282 285 289 293 297 302 304 306 308 306 306 306 310 310 292 270 267 252 232 227 231 237 240 242 248 241 214 174 205 230 300 290 275 228 227 236
274 267 264 266 267 265 263 262 262 266 271 275 279 283 289 293 298 301 303 306 304 303 303 304 304 287 259 258 244 237 234 235 236 238 243 236 234 228 179 157 127 239 249 256 160 177 192
282 279 275 272 269 271 272 270 267 264 263 267 272 277 281 284 291 295 300 304 304 301 297 293 288 267 264 260 242 236 229 227 228 227 224 221 223 194 159 223 257 213 272 231 269 211 159
293 291 286 280 276 273 274 277 277 275 271 267 266 269 273 279 284 290 296 302 305 299 281 271 254 257 247 246 239 231 223 221 219 214 204 205 187 227 201 205 258 263 247 253 263 185 215
291 293 293 290 286 282 279 278 281 279 276 274 271 270 272 276 281 287 293 308 304 292 252 232 219 241 269 247 243 233 218 209 211 203 216 142 227 240 246 229 268 266 259 261 267 200 245
286 289 289 289 287 285 286 287 283 281 279 277 274 272 272 276 278 285 290 295 278 274 297 259 253 255 259 262 255 245 219 188 181 220 145 176 239 253 48 214 227 233 260 264 280 250 220
278 282 286 285 283 284 283 284 287 289 291 284 280 277 276 275 277 279 276 275 277 279 252 269 244 246 252 245 238 247 204 202 199 201 204 228 255 79 197 207 206 228 236 256 267 323 237
272 275 277 280 279 276 280 280 281 285 292 296 288 286 283 282 295 272 266 261 247 290 261 242 229 227 223 204 247 217 194 192 199 240 192 240 241 207 199 230 204 240 231 245 266 296 282
271 268 270 272 273 274 272 276 279 280 283 296 297 291 290 282 257 253 254 220 165 92 275 44 186 217 179 186 126 207 192 196 214 184 176 222 180 190 207 229 178 249 110 173 209 257 316
275 270 267 269 268 268 271 271 274 276 280 282 291 292 285 288 280 232 211 175 142 204 242 245 182 189 170 210 194 128 163 164 137 171 245 260 160 216 212 82 156 135 120 145 154 258 255
272 276 265 268 265 263 262 267 271 271 270 273 271 279 277 277 270 212 175 151 218 232 45 197 204 191 216 186 200 188 170 180 190 178 215 193 219 169 174 133 117 195 180 277 256 225 264
273 271 270 266 270 267 261 262 265 264 268 262 260 251 264 264 269 193 167 184 237 189 210 99 163 157 201 169 213 186 177 220 229 216 219 241 255 183 183 218 204 184 217 204 261 277 288
270 274 272 271 268 265 270 264 258 256 261 261 249 236 241 241 246 193 173 215 240 230 185 178 104 206 218 223 210 185 215 229 210 192 210 210 256 99 229 93 181 164 199 235 288 105 281
276 279 273 277 273 273 264 267 271 265 254 258 241 233 234 232 221 187 193 242 233 203 160 183 218 196 230 218 190 193 198 190 230 198 225 256 262 119 124 145 47 225 140 139 200 260 258
278 275 275 273 274 272 277 271 273 276 280 263 250 215 230 224 192 174 212 237 251 247 208 196 230 239 234 238 214 218 241 210 198 199 206 204 217 197 151 205 191 171 204 227 311 227 253
275 275 275 276 275 273 272 270 272 271 268 270 230 222 206 180 180 201 226 232 235 248 239 257 237 251 244 227 238 235 243 225 186 161 170 207 208 234 239 146 310 252 232 215 225 228 235
297 280 282 285 286 294 279 272 262 263 262 274 231 221 185 181 189 210 224 238 261 233 232 214 230 221 215 235 235 235 244 211 194 173 171 170 207 241 255 213 178 212 210 232 242 258 248
305 302 288 274 276 278 288 290 274 263 256 254 249 198 167 216 242 219 219 225 229 235 243 238 285 33 212 242 234 253 249 201 207 208 221 180 172 217 239 251 100 191 228 222 223 234 252
303 304 313 298 287 273 276 290 295 282 257 255 235 218 182 183 235 236 226 228 238 240 228 209 221 225 234 248 248 252 260 250 189 185 224 183 234 236 249 261 274 278 270 251 234 242 243
301 298 305 303 307 283 285 276 290 303 272 251 251 182 183 213 219 217 223 222 229 239 230 231 225 231 232 241 243 259 245 249 238 198 215 203 244 247 252 261 263 258 260 262 266 258 252
291 294 295 296 295 296 297 278 278 291 292 281 269 258 237 189 195 208 223 226 231 236 242 237 234 234 233 228 227 240 251 257 205 232 228 211 224 220 240 232 251 256 241 249 256 262 257
287 288 285 290 289 290 288 286 282 278 278 272 286 301 282 290 236 225 224 215 223 230 229 235 233 233 239 250 251 260 255 247 242 228 227 241 226 228 247 231 230 234 244 237 245 251 258
286 284 278 281 282 282 281 280 280 278 284 284 284 286 278 273 277 296 290 254 248 239 241 243 241 239 250 245 241 251 232 228 228 227 226 219 231 236 232 222 242 180 236 226 229 246 257
288 288 288 285 283 283 278 283 281 275 263 270 269 276 274 284 248 273 282 290 289 255 260 247 250 254 249 227 204 234 235 202 200 217 220 225 228 229 224 232 236 234 237 240 78 250 249
287 285 287 285 284 280 276 273 279 275 268 267 270 267 252 264 268 263 272 281 300 325 308 319 303 237 226 227 238 244 247 209 233 227 225 202 216 227 235 245 247 222 209 125 194 242 247
281 284 283 278 280 282 275 269 271 271 273 263 263 265 260 274 274 266 266 276 295 291 285 357 346 297 220 227 231 229 240 230 233 233 226 223 206 214 231 243 248 218 228 221 237 242 243
277 280 282 280 275 276 276 269 264 268 267 266 262 258 258 249 263 268 271 272 273 271 272 259 298 319 292 306 350 320 293 212 201 228 218 231 226 237 223 232 240 215 223 228 238 250 251
Wind_Speed_850mb
35 33 31 31 31 29 28 27 27 27 27 27 26 26 27 27 26 26 27 28 29 29 29 26 25 18 14 14 22 19 26 25 19 13 9 9 7 6 6 8 5 9 7 10 12 14 16
36 37 38 37 36 35 35 33 33 33 33 32 32 32 31 31 32 32 31 30 32 31 32 31 27 21 17 16 18 22 28 29 27 21 16 12 8 6 5 7 9 5 10 17 14 14 16
35 35 37 41 43 42 40 39 38 37 37 37 36 36 36 36 35 35 35 33 37 36 35 35 31 22 26 30 22 25 29 30 28 23 18 14 10 7 7 4 4 3 13 15 21 10 10
34 36 38 40 41 45 46 46 44 43 42 42 40 39 40 41 39 41 39 37 38 39 40 38 30 22 18 23 24 29 29 29 26 22 18 13 11 7 5 8 2 6 6 8 10 14 6
33 35 38 42 43 45 46 47 50 51 49 47 45 44 44 43 43 44 43 41 42 41 38 36 26 17 17 20 26 32 29 25 23 19 16 12 10 7 8 7 9 10 20 17 9 20 7
28 32 35 37 43 44 44 46 48 49 53 54 52 49 47 45 45 46 46 44 44 41 34 25 26 10 28 16 18 20 27 28 20 17 10 11 6 7 7 13 24 21 15 16 21 10 17
30 31 31 32 34 39 42 40 43 47 49 50 54 55 52 48 47 45 47 38 17 11 12 16 6 14 18 17 18 19 24 25 21 13 13 3 13 31 35 34 26 14 15 33 30 8 10
34 35 33 33 34 34 34 36 38 44 47 49 50 52 53 50 46 41 41 22 21 18 21 30 40 49 55 49 20 32 28 22 18 21 14 7 30 34 1 12 18 16 25 39 26 4 13
39 38 38 37 35 35 35 33 33 37 44 44 49 53 53 46 45 37 33 28 23 18 12 17 38 36 46 43 28 35 33 21 15 18 28 31 17 3 16 16 21 23 35 28 20 12 14
48 45 43 41 41 37 35 35 36 35 39 40 39 42 49 47 32 29 22 14 8 4 11 11 11 14 19 17 10 24 38 14 8 18 18 19 7 15 13 21 24 25 18 22 15 10 23
57 55 52 49 46 43 41 39 39 39 39 40 39 35 34 36 19 17 13 9 10 3 17 3 6 7 13 13 8 8 29 16 16 16 14 12 15 17 19 18 23 11 4 9 6 16 12
55 61 59 58 57 50 48 45 44 45 44 43 37 35 30 31 18 21 15 13 15 7 21 6 8 9 7 8 4 9 9 5 4 8 10 13 1 9 8 7 2 17 6 3 2 6 18
61 64 62 65 64 65 61 56 50 51 50 47 42 37 34 31 13 16 25 24 9 18 5 13 14 11 7 13 11 15 14 17 17 11 20 9 15 7 8 9 5 9 9 12 12 11 25
54 60 66 68 58 68 73 72 72 60 60 54 50 47 47 36 23 23 39 8 30 17 29 6 8 10 19 24 15 19 13 17 24 10 5 13 28 27 23 30 14 23 17 12 21 25 42
43 42 62 62 65 68 61 67 83 75 68 66 59 65 66 52 33 34 27 20 30 23 17 18 6 12 17 10 9 14 26 18 20 41 28 17 32 6 1 3 9 16 17 5 7 4 15
63 60 50 43 46 57 68 60 59 73 77 72 79 79 82 63 43 47 12 46 25 21 17 14 37 32 33 31 19 22 23 13 16 30 42 6 20 6 6 3 2 9 9 8 7 12 31
62 64 68 69 59 51 44 48 55 56 51 59 74 30 39 54 55 36 19 29 22 34 24 26 41 33 31 32 29 23 30 10 18 14 22 7 12 6 10 24 31 12 13 9 6 10 19
65 66 64 69 67 65 69 60 47 52 49 46 55 10 39 65 25 15 25 20 14 14 24 18 8 25 45 31 27 27 33 30 41 27 24 16 6 21 42 6 4 17 30 36 19 22 18
39 47 42 42 42 48 64 64 65 60 44 48 24 18 60 95 20 22 26 25 20 24 24 18 28 23 20 27 22 32 36 20 33 27 24 19 10 13 26 11 4 16 19 20 34 29 58
39 40 42 52 46 38 35 44 50 58 53 43 18 7 14 45 33 39 39 40 31 34 27 18 8 5 2 19 25 27 28 9 21 20 8 29 13 26 41 44 3 11 28 38 46 35 44
34 35 35 40 48 49 43 29 39 43 57 40 26 12 26 12 25 31 31 15 43 28 32 26 11 43 43 39 45 38 53 39 9 9 4 12 27 28 41 48 46 48 37 39 51 56 53
38 41 40 43 36 42 47 47 33 29 41 48 25 11 21 11 58 49 43 35 55 50 41 28 37 44 42 51 47 46 46 42 34 8 12 8 36 37 53 58 64 68 41 67 63 68 51
41 41 45 43 44 42 35 42 47 44 30 23 28 54 28 29 23 26 43 55 54 52 54 71 58 38 42 49 85 97 85 58 18 31 34 19 15 22 45 49 46 28 66 69 81 76 64
47 47 48 44 45 41 38 37 33 35 40 41 39 44 14 10 24 34 48 59 68 71 67 63 74 50 91 94 51 41 39 53 42 40 47 30 40 27 21 17 34 43 49 72 72 68 66
50 53 51 50 49 49 38 35 37 43 41 35 42 36 13 10 12 28 27 41 56 81 65 66 94 93 65 51 18 23 10 14 32 50 53 49 41 20 17 31 34 6 33 45 42 65 56
53 55 53 53 52 50 45 42 48 52 36 39 53 51 43 10 15 23 11 13 14 29 35 58 90 89 63 12 10 23 25 14 15 11 51 50 50 36 25 27 39 40 58 52 11 16 59
53 56 56 56 59 55 51 48 48 41 38 40 44 42 46 21 45 35 27 24 20 14 12 6 17 36 71 25 30 29 31 10 24 34 33 18 27 48 46 42 28 23 17 11 23 38 63
55 56 58 57 56 58 56 52 51 47 46 41 50 41 46 34 53 40 41 31 32 16 7 17 20 3 6 20 21 27 20 27 29 51 55 47 23 22 25 35 50 34 54 48 57 76 72
59 56 57 58 60 59 58 55 54 51 48 45 56 50 43 46 38 46 55 53 51 55 37 12 14 20 12 7 7 8 10 10 29 25 37 40 52 51 41 29 23 43 59 100 110 81 75
Wind_Direction_850mb
257 256 255 257 262 265 268 272 277 282 286 290 294 299 305 310 313 317 321 323 323 325 326 328 322 308 282 245 245 231 216 220 228 240 253 263 243 178 217 189 199 228 215 230 250 256 242
257 258 260 259 259 262 267 271 274 278 281 284 289 293 297 302 308 311 312 314 312 314 317 319 316 298 269 242 246 229 223 227 235 238 246 252 236 250 177 203 223 191 254 261 267 251 240
261 261 260 261 262 262 262 265 270 273 277 282 285 289 293 297 302 304 306 308 306 306 306 310 310 292 270 267 252 232 227 231 237 240 242 248 241 214 174 205 230 300 290 275 228 227 236
274 267 264 266 267 265 263 262 262 266 271 275 279 283 289 293 298 301 303 306 304 303 303 304 304 287 259 258 244 237 234 235 236 238 243 236 234 228 179 157 127 239 249 256 160 177 192
282 279 275 272 269 271 272 270 267 264 263 267 272 277 281 284 291 295 300 304 304 301 297 293 288 267 264 260 242 236 229 227 228 227 224 221 223 194 159 223 257 213 272 231 269 211 159
293 291 286 280 276 273 274 277 277 275 271 267 266 269 273 279 284 290 296 302 305 299 281 271 254 257 247 246 239 231 223 221 219 214 204 205 187 227 201 205 258 263 247 253 263 185 215
291 293 293 290 286 282 279 278 281 279 276 274 271 270 272 276 281 287 293 308 304 292 252 232 219 241 269 247 243 233 218 209 211 203 216 142 227 240 246 229 268 266 259 261 267 200 245
286 289 289 289 287 285 286 287 283 281 279 277 274 272 272 276 278 285 290 295 278 274 297 259 253 255 259 262 255 245 219 188 181 220 145 176 239 253 48 214 227 233 260 264 280 250 220
278 282 286 285 283 284 283 284 287 289 291 284 280 277 276 275 277 279 276 275 277 279 252 269 244 246 252 245 238 247 204 202 199 201 204 228 255 79 197 207 206 228 236 256 267 323 237
272 275 277 280 279 276 280 280 281 285 292 296 288 286 283 282 295 272 266 261 247 290 261 242 229 227 223 204 247 217 194 192 199 240 192 240 241 207 199 230 204 240 231 245 266 296 282
271 268 270 272 273 274 272 276 279 280 283 296 297 291 290 282 257 253 254 220 165 92 275 44 186 217 179 186 126 207 192 196 214 184 176 222 180 190 207 229 178 249 110 173 209 257 316
275 270 267 269 268 268 271 271 274 276 280 282 291 292 285 288 280 232 211 175 142 204 242 245 182 189 170 210 194 128 163 164 137 171 245 260 160 216 212 82 156 135 120 145 154 258 255
272 276 265 268 265 263 262 267 271 271 270 273 271 279 277 277 270 212 175 151 218 232 45 197 204 191 216 186 200 188 170 180 190 178 215 193 219 169 174 133 117 195 180 277 256 225 264
273 271 270 266 270 267 261 262 265 264 268 262 260 251 264 264 269 193 167 184 237 189 210 99 163 157 201 169 213 186 177 220 229 216 219 241 255 183 183 218 204 184 217 204 261 277 288
270 274 272 271 268 265 270 264 258 256 261 261 249 236 241 241 246 193 173 215 240 230 185 178 104 206 218 223 210 185 215 229 210 192 210 210 256 99 229 93 181 164 199 235 288 105 281
276 279 273 277 273 273 264 267 271 265 254 258 241 233 234 232 221 187 193 242 233 203 160 183 218 196 230 218 190 193 198 190 230 198 225 256 262 119 124 145 47 225 140 139 200 260 258
278 275 275 273 274 272 277 271 273 276 280 263 250 215 230 224 192 174 212 237 251 247 208 196 230 239 234 238 214 218 241 210 198 199 206 204 217 197 151 205 191 171 204 227 311 227 253
275 275 275 276 275 273 272 270 272 271 268 270 230 222 206 180 180 201 226 232 235 248 239 257 237 251 244 227 238 235 243 225 186 161 170 207 208 234 239 146 310 252 232 215 225 228 235
297 280 282 285 286 294 279 272 262 263 262 274 231 221 185 181 189 210 224 238 261 233 232 214 230 221 215 235 235 235 244 211 194 173 171 170 207 241 255 213 178 212 210 232 242 258 248
305 302 288 274 276 278 288 290 274 263 256 254 249 198 167 216 242 219 219 225 229 235 243 238 285 33 212 242 234 253 249 201 207 208 221 180 172 217 239 251 100 191 228 222 223 234 252
303 304 313 298 287 273 276 290 295 282 257 255 235 218 182 183 235 236 226 228 238 240 228 209 221 225 234 248 248 252 260 250 189 185 224 183 234 236 249 261 274 278 270 251 234 242 243
301 298 305 303 307 283 285 276 290 303 272 251 251 182 183 213 219 217 223 222 229 239 230 231 225 231 232 241 243 259 245 249 238 198 215 203 244 247 252 261 263 258 260 262 266 258 252
291 294 295 296 295 296 297 278 278 291 292 281 269 258 237 189 195 208 223 226 231 236 242 237 234 234 233 228 227 240 251 257 205 232 228 211 224 220 240 232 251 256 241 249 256 262 257
287 288 285 290 289 290 288 286 282 278 278 272 286 301 282 290 236 225 224 215 223 230 229 235 233 233 239 250 251 260 255 247 242 228 227 241 226 228 247 231 230 234 244 237 245 251 258
286 284 278 281 282 282 281 280 280 278 284 284 284 286 278 273 277 296 290 254 248 239 241 243 241 239 250 245 241 251 232 228 228 227 226 219 231 236 232 222 242 180 236 226 229 246 257
288 288 288 285 283 283 278 283 281 275 263 270 269 276 274 284 248 273 282 290 289 255 260 247 250 254 249 227 204 234 235 202 200 217 220 225 228 229 224 232 236 234 237 240 78 250 249
287 285 287 285 284 280 276 273 279 275 268 267 270 267 252 264 268 263 272 281 300 325 308 319 303 237 226 227 238 244 247 209 233 227 225 202 216 227 235 245 247 222 209 125 194 242 247
281 284 283 278 280 282 275 269 271 271 273 263 263 265 260 274 274 266 266 276 295 291 285 357 346 297 220 227 231 229 240 230 233 233 226 223 206 214 231 243 248 218 228 221 237 242 243
277 280 282 280 275 276 276 269 264 268 267 266 262 258 258 249 263 268 271 272 273 271 272 259 298 319 292 306 350 320 293 212 201 228 218 231 226 237 223 232 240 215 223 228 238 250 251